This is the latest recevied weather packets stored in our database for station/object N2PPN. If no packets are shown the sender has not sent any weather packets the latest 10 day(s).
| Time | Temp. | Humidity | Pressure | Rain* | Wind** | Luminosity | Snow |
|---|---|---|---|---|---|---|---|
| 1777671779 | 12.78° C | 65% | 1014.6 hPa | 0 mm | - | 215 W/m² | - |
| 1777671475 | 12.78° C | 64% | 1014.3 hPa | 0 mm | - | 228 W/m² | - |
| 1777671172 | 13.33° C | 63% | 1014.3 hPa | 0 mm | - | 244 W/m² | - |
| 1777670868 | 13.33° C | 62% | 1014.3 hPa | 0 mm | - | 258 W/m² | - |
| 1777670564 | 13.33° C | 62% | 1014.2 hPa | 0 mm | - | 272 W/m² | - |
| 1777670262 | 13.89° C | 60% | 1014.5 hPa | 0 mm | - | 286 W/m² | - |
| 1777669959 | 13.33° C | 59% | 1014.4 hPa | 0 mm | - | 303 W/m² | - |
| 1777669656 | 13.33° C | 59% | 1014.2 hPa | 0 mm | - | 313 W/m² | - |
| 1777669352 | 13.89° C | 58% | 1014.5 hPa | 0 mm | - | 327 W/m² | - |
| 1777669049 | 13.33° C | 58% | 1014.5 hPa | 0 mm | - | 344 W/m² | - |
| 1777668746 | 13.89° C | 57% | 1014.2 hPa | 0 mm | - | 357 W/m² | - |
| 1777668443 | 13.89° C | 57% | 1014.2 hPa | 0 mm | - | 371 W/m² | - |
| 1777668140 | 14.44° C | 54% | 1014.1 hPa | 0 mm | - | 387 W/m² | - |
| 1777667836 | 15° C | 52% | 1014.1 hPa | 0 mm | - | 396 W/m² | - |
| 1777667533 | 15.56° C | 50% | 1014.2 hPa | 0 mm | - | 411 W/m² | - |
| 1777667230 | 15° C | 47% | 1013.9 hPa | 0 mm | - | 428 W/m² | - |
| 1777666927 | 15° C | 48% | 1013.8 hPa | 0 mm | - | 443 W/m² | - |
| 1777666624 | 15.56° C | 48% | 1013.9 hPa | 0 mm | - | 455 W/m² | - |
| 1777666321 | 15° C | 48% | 1014.1 hPa | 0 mm | - | 464 W/m² | - |
| 1777666017 | 15.56° C | 48% | 1014.2 hPa | 0 mm | - | 477 W/m² | - |
| 1777665715 | 15° C | 50% | 1013.8 hPa | 0 mm | - | 491 W/m² | - |
| 1777665412 | 15.56° C | 49% | 1014 hPa | 0 mm | - | 501 W/m² | - |
| 1777665108 | 16.11° C | 52% | 1014 hPa | 0 mm | - | 518 W/m² | - |
| 1777664804 | 16.67° C | 48% | 1013.7 hPa | 0 mm | - | 523 W/m² | - |
| 1777664499 | 17.22° C | 45% | 1013.6 hPa | 0 mm | - | 533 W/m² | - |
* Rain latest hour (hover to see other rain measurements)
** Current wind speed in m/s (hover to see current wind gust speed)